Location: *
(24.1434°N, 56.8729°E)
Time: 20:10:25
(UTC+00:00)

STARLINK-1128 - Pass Details

Date: 09 April 2020
Orbit: 549 x 550 km, 53.0° (Epoch: 25 May)

Event Time Altitude Azimuth Distance (km) Brightness Sun altitude
Rises 15:07:39 0° 321° (NW) 2,723 8.1 -8.8°
Reaches altitude 10° 15:09:53 10° 321° (NW) 1,827 7.1 -9.3°
Maximum altitude 15:14:03 89° 39° (NE) 555 3.6 -10.3°
Drops below altitude 10° 15:18:11 10° 142° (SE) 1,820 5.8 -11.2°
Enters shadow 15:18:15 10° 142° (SE) 1,845 5.8 -11.2°
